Regional Weather Roundup
Issued by NWS

Home | Current Version | Previous Version | Text Only | Print | Product List | Glossary Off
Versions: 1 2 3 4 5 6 7 8 9 10 11 12 13 14 15 16 17 18 19 20 21 22 23 24 25 26 27 28 29 30 31 32 33 34 35 36 37 38 39 40 41 42 43 44 45 46 47 48 49 50

796
ASUS44 KMEG 240900
RWRTN
TENNESSEE HOURLY STATE WEATHER ROUNDUP
NATIONAL WEATHER SERVICE MEMPHIS TN
400 AM CDT TUE MAY 24 2016

TNZ002-004-019-021-049-052-054-088>092-241000-
WEST TENNESSEE

CITY           SKY/WX    TMP DP  RH WIND       PRES   REMARKS
MEMPHIS INTL   PTCLDY    70  54  56 S8        29.99S
NWS MEMPHIS      N/A     64 N/A N/A MISG        N/A
JACKSON        CLOUDY    58  56  93 CALM      30.01R
DYERSBURG      PTCLDY    64  55  72 CALM      30.01R
UNION CITY     PTCLDY    63  61  94 CALM      30.00R
PARIS          CLEAR     55  54  94 CALM      30.02S
LEXINGTON      CLEAR     55  55 100 CALM      30.03R
$$

TNZ008-025-027-028-033-062-065-066-241000-
NORTH MIDDLE TENNESSEE

CITY           SKY/WX    TMP DP  RH WIND       PRES   REMARKS
NASHVILLE      PTCLDY    58  52  80 CALM      30.04R
CLARKSVILLE    CLEAR     55  51  86 CALM      30.03R
COOKEVILLE     CLEAR     45  45 100 CALM      30.05R
CROSSVILLE     CLEAR     50  45  83 CALM      30.09R
$$

TNZ061-075-076-078-094-096-097-241000-
SOUTH MIDDLE TENNESSEE

CITY           SKY/WX    TMP DP  RH WIND       PRES   REMARKS
TULLAHOMA      CLEAR     48  48 100 CALM      30.07R
WINCHESTER     CLEAR     52  48  87 CALM      30.06R
MCMINNVILLE    CLEAR     48  48 100 CALM      30.06R
COLUMBIA       CLEAR    N/A N/A N/A SW5       30.04R
SHELBYVILLE    CLEAR     54  50  87 E3        30.06R
$$

TNZ017-018-042-046-047-241000-
NORTHEAST TENNESSEE

CITY           SKY/WX    TMP DP  RH WIND       PRES   REMARKS
TRI CITIES     CLEAR     48  47  96 CALM      30.10R
$$

TNZ012-013-036-069-073-074-241000-
CENTRAL EAST TENNESSEE

CITY           SKY/WX    TMP DP  RH WIND       PRES   REMARKS
KNOXVILLE      NOT AVBL
OAK RIDGE      CLEAR     53  50  89 CALM      30.09R
GATLINBURG     CLEAR     48  46  93 VRB3      30.07R
$$

TNZ083-085-099-241000-
SOUTHEAST TENNESSEE

CITY           SKY/WX    TMP DP  RH WIND       PRES   REMARKS
CHATTANOOGA    CLEAR     57  52  83 CALM      30.07R
$$

SKY/WX REPORTED AS FAIR MEANS FEW OR NO CLOUDS BELOW
12 THOUSAND FEET.





USA.gov is the U.S. government's official web portal to all federal, state and local government web resources and services.